Location: *
(50.3194°N, 7.1067°E)
Time: 02:25:14
(UTC+00:00)

EO 1 Delta rocket - Pass Details

Date: 22 September 2019
Orbit: 697 x 1792 km, 95.4° (Epoch: 16 October)

Event Time Altitude Azimuth Distance (km) Brightness Sun altitude
Rises 18:57:26 0° 172° (S) 3,979 7.4 -14.5°
Reaches altitude 10° 19:00:16 10° 174° (S) 2,864 6.7 -14.9°
Maximum altitude 19:06:34 76° 260° (W) 911 4.5 -15.8°
Drops below altitude 10° 19:11:39 10° 347° (NNW) 2,332 7.0 -16.6°
Sets 19:13:47 0° 349° (N) 3,193 7.7 -16.9°
